Flag for Moldova Weather past 2 weeks in Tiraspol, Moldova

Now
70 °F

Partly sunny.


Feels Like: 70 °F
Forecast: 62 / 83 °F
Wind: 7 mph from Northeast

Location: Chisinau International Airport

Current Time: Jul 31, 2015 at 10:47:18 AM

Latest Report: Jul 31, 2015 at 10:00 AM


Visibility: 6 mi

Pressure: 29.92 "Hg

Humidity: 83%

Dew point: 64 °F

Location of TiraspolLocation

Historic Weather in Tiraspol — Graph

°F

Tiraspol temperature yesterday

Maximum temperature yesterday: 93 °F (at 1:30 PM)
Minimum temperature yesterday: 70 °F (at 11:00 PM)
Average temperature yesterday: 82 °F

Past Weeks' High & Low Weather Summary

 TemperatureHumidityPressure
High97 °F (Jul 26, 1:30 PM)88% (Jul 31, 2:00 AM)30.12 "Hg (Jul 31, 2:00 AM)
Low57 °F (Jul 17, 3:00 AM)18% (Jul 25, 4:30 PM)29.62 "Hg (Jul 26, 3:00 PM)
Average79 °F46%29.89 "Hg
* Reported Jul 16 9:00 AM — Jul 31 9:30 AM, Tiraspol, Weather by CustomWeather, © 2015

Note: Actual official high and low records may vary slightly from our data, if they occured in-between our weather recording intervals... More about our weather records

Advertising

Tiraspol weather history for previous 24 hours

 ConditionsComfort  
Time TempWeatherWind HumidityBarometerVisibility
9:30 AM
Fri, Jul 31
68 °FPartly sunny.9 mph88%29.92 "Hg6 mi
9:00 AM68 °FSprinkles. Partly sunny.7 mph88%29.92 "Hg4 mi
8:30 AM68 °FPartly sunny.8 mph88%29.89 "Hg5 mi
8:00 AM68 °FSprinkles. Partly sunny.5 mph88%29.92 "Hg4 mi
7:30 AM68 °FFog.5 mph88%29.92 "Hg3 mi
7:00 AM68 °FPartly sunny.7 mph88%29.92 "Hg4 mi
6:30 AM68 °FFog.7 mph88%29.89 "Hg3 mi
6:00 AM68 °FFog.6 mph88%29.89 "Hg3 mi
5:30 AM68 °FFog.8 mph88%29.89 "Hg3 mi
5:00 AM68 °FFog.5 mph88%29.89 "Hg2 mi
4:30 AM68 °FThundershowers. Passing clouds.3 mph88%29.89 "Hg2 mi
4:00 AM68 °FThundershowers. Partly cloudy.1 mph88%29.92 "Hg3 mi
3:30 AM68 °FSprinkles. Partly cloudy.5 mph88%29.89 "Hg4 mi
3:00 AM68 °FPassing clouds.3 mph88%29.89 "HgN/A
2:30 AM68 °FSprinkles. Passing clouds.8 mph88%29.89 "Hg4 mi
2:00 AM68 °FFog.5 mph88%29.89 "Hg3 mi
1:00 AM70 °FSprinkles. Partly cloudy.6 mph83%29.89 "Hg4 mi
12:30 AM70 °FSprinkles. Passing clouds.5 mph83%29.89 "HgN/A
12:00 AM70 °FSprinkles. Passing clouds.6 mph83%29.89 "HgN/A
11:30 PM
Thu, Jul 30
70 °FPartly cloudy.10 mph78%29.89 "HgN/A
11:00 PM70 °FThundershowers. Partly cloudy.8 mph83%29.86 "HgN/A
10:30 PM72 °FThundershowers. Partly cloudy.13 mph69%29.89 "Hg1 mi
10:00 PM75 °FThundershowers. Partly cloudy.10 mph57%29.86 "HgN/A
9:30 PM77 °FThundershowers. Scattered clouds.10 mph54%29.86 "HgN/A
9:00 PM77 °FThundershowers. Scattered clouds.8 mph54%29.83 "HgN/A
8:30 PM79 °FScattered clouds.16 mph51%29.83 "HgN/A
8:00 PM82 °FScattered clouds.14 mph42%29.83 "HgN/A
7:30 PM84 °FScattered clouds.14 mph40%29.80 "HgN/A
7:00 PM86 °FScattered clouds.10 mph38%29.77 "HgN/A
6:30 PM90 °FScattered clouds.14 mph33%29.77 "HgN/A
6:00 PM90 °FPartly sunny.14 mph33%29.77 "HgN/A
5:30 PM91 °FPartly sunny.12 mph32%29.77 "HgN/A
5:00 PM93 °FPartly sunny.10 mph32%29.77 "HgN/A
4:30 PM93 °FPartly sunny.9 mph32%29.77 "HgN/A
4:00 PM93 °FPartly sunny.2 mph30%29.77 "HgN/A
3:30 PM91 °FPartly sunny.5 mph30%29.77 "HgN/A
3:00 PM93 °FPartly sunny.6 mph30%29.80 "HgN/A
2:30 PM93 °FPartly sunny.6 mph28%29.80 "HgN/A
2:00 PM91 °FScattered clouds.7 mph30%29.80 "HgN/A
1:30 PM93 °FScattered clouds.8 mph28%29.80 "HgN/A
1:00 PM91 °FPassing clouds.9 mph30%29.80 "HgN/A
12:30 PM90 °FSunny.12 mph31%29.80 "Hg10 mi
12:00 PM90 °FSunny.12 mph33%29.80 "Hg10 mi
11:30 AM88 °FSunny.10 mph35%29.80 "Hg10 mi
11:00 AM86 °FPassing clouds.12 mph38%29.80 "HgN/A
10:30 AM86 °FSunny.9 mph40%29.80 "Hg10 mi
10:00 AM84 °FPassing clouds.9 mph45%29.83 "HgN/A
Weather by CustomWeather, © 2015

See weather overviewHow to use our weather pages